BSAT-4A

Last updated on Sun Dec 07 2025 00:02:49 GMT+0000 (Coordinated Universal Time)

1 42951U 17059B 25340.51983696 -.00000343 00000+0 00000+0 0 9993 2 42951 0.0511 48.8245 0002184 283.9292 39.7869 1.00269428 29860
UTC large
Height (km)
Speed (km/s)
/
Latitude / Longitude
Inclination (degrees)
Orbital Period (minutes)
Azimuth
Elevation
Range (km)
Doppler Factor

Next 0 passes for location: London (51.5072 / 0.1276)

Sorry there are no passes over London.